Location: ??? ???
(33.4974°N, 35.4618°E)
Time: 12:31:29
(UTC+00:00)

Cosmos 1709 Rocket - Pass Details

Date: 29 October 2020
Orbit: 949 x 1001 km, 82.9° (Epoch: 26 November)

Event Time Altitude Azimuth Distance (km) Brightness Sun altitude
Rises 16:55:51 0° 352° (N) 3,727 7.2 -27.0°
Reaches altitude 10° 16:58:23 10° 351° (N) 2,776 6.5 -27.5°
Maximum altitude 17:04:46 80° 266° (W) 1,019 4.0 -28.9°
Drops below altitude 10° 17:11:06 10° 180° (S) 2,753 6.3 -30.2°
Sets 17:13:36 0° 179° (S) 3,694 7.0 -30.7°
